Location: Newark
(35.6799°N, 139.7636°E)
Time: 22:41:07
(UTC+00:00)

Courier 1B Rocket - Visible Passes

Search period start: 10 December 2019 00:00
Search period end: 20 December 2019 00:00
Orbit: 920 x 1202 km, 28.2° (Epoch: 09 December)

Date Brightness Start Highest point End Pass type
(mag) Time Alt. Az. Time Alt. Az. Time Alt. Az.
10 Dec 7.5 18:39:26 11° S 18:42:35 14° SSE 18:46:00 10° ESE visible
10 Dec 6.6 20:29:22 10° SW 20:35:25 31° SSE 20:41:07 10° ESE visible
11 Dec 6.8 19:29:17 12° SSW 19:34:30 26° SSE 19:39:57 10° ESE visible
12 Dec 7.0 18:32:35 20° SSE 18:33:34 21° SSE 18:38:33 10° ESE visible
12 Dec 6.3 20:20:01 10° SW 20:26:32 38° S 20:32:38 10° ESE visible
13 Dec 7.7 17:35:45 12° SE 17:35:45 12° SE 17:36:38 10° ESE visible
13 Dec 6.4 19:22:09 23° SSW 19:25:34 33° SSE 19:31:36 10° ESE visible
13 Dec 6.0 21:11:59 10° WSW 21:18:39 45° S 21:24:52 10° ESE visible
14 Dec 6.7 18:25:14 27° SSE 18:25:14 27° SSE 18:30:25 10° ESE visible
14 Dec 6.0 20:11:37 13° WSW 20:17:39 44° S 20:24:01 10° ESE visible
15 Dec 7.7 17:28:14 12° ESE 17:28:14 12° ESE 17:28:58 10° ESE visible
15 Dec 6.1 19:14:37 34° SSW 19:16:38 40° S 19:23:05 10° ESE visible
15 Dec 6.0 21:03:01 10° WSW 21:09:48 46° S 21:16:08 10° ESE visible
16 Dec 6.6 18:17:32 30° SE 18:17:32 30° SE 18:22:00 10° ESE visible
16 Dec 5.9 20:03:54 20° WSW 20:08:47 47° S 20:15:20 10° ESE visible
17 Dec 7.8 17:20:23 11° ESE 17:20:23 11° ESE 17:20:46 10° ESE visible
17 Dec 5.8 19:06:46 43° SSW 19:07:43 45° S 19:14:26 10° ESE visible
17 Dec 6.0 20:54:06 10° WSW 21:00:56 43° S 21:07:18 10° ESE visible
18 Dec 6.8 18:09:35 29° ESE 18:09:35 29° ESE 18:13:24 10° ESE visible
18 Dec 5.9 19:55:58 25° WSW 19:59:54 47° S 20:06:33 10° ESE visible
19 Dec 5.8 18:58:44 48° S 18:58:48 48° S 19:05:41 10° ESE visible
19 Dec 6.2 20:45:15 10° W 20:52:00 39° SSW 20:58:20 10° SE visible
